TimeEST,TemperatureF,Dew PointF,Humidity,Sea Level PressureIn,VisibilityMPH,Wind Direction,Wind SpeedMPH,Gust SpeedMPH,PrecipitationIn,Events,Conditions,WindDirDegrees,DateUTC
12:15 AM,32.0,30.2,93,30.28,7.0,ENE,6.9,-,N/A,,Overcast,60,2014-02-04 05:15:00
12:35 AM,32.0,30.2,93,30.28,7.0,ENE,4.6,-,N/A,,Overcast,60,2014-02-04 05:35:00
12:55 AM,32.0,30.2,93,30.28,5.0,ENE,4.6,-,N/A,,Overcast,60,2014-02-04 05:55:00
1:15 AM,32.0,30.2,93,30.28,5.0,ENE,4.6,-,N/A,,Overcast,70,2014-02-04 06:15:00
1:35 AM,32.0,32.0,100,30.26,4.0,East,3.5,-,N/A,,Overcast,80,2014-02-04 06:35:00
1:55 AM,32.0,32.0,100,30.27,4.0,Calm,Calm,-,N/A,,Overcast,0,2014-02-04 06:55:00
2:15 AM,32.0,32.0,100,30.27,4.0,ENE,4.6,-,N/A,,Overcast,70,2014-02-04 07:15:00
2:35 AM,32.0,32.0,100,30.26,4.0,ENE,5.8,-,N/A,,Overcast,70,2014-02-04 07:35:00
2:55 AM,32.0,32.0,100,30.25,4.0,ENE,6.9,-,N/A,,Overcast,70,2014-02-04 07:55:00
3:15 AM,32.0,32.0,100,30.26,5.0,ENE,5.8,-,N/A,,Overcast,60,2014-02-04 08:15:00
3:35 AM,32.0,30.2,93,30.26,5.0,ENE,6.9,-,N/A,,Overcast,70,2014-02-04 08:35:00
3:55 AM,32.0,30.2,93,30.25,7.0,ENE,6.9,-,N/A,,Overcast,70,2014-02-04 08:55:00
4:15 AM,32.0,30.2,93,30.25,7.0,ENE,5.8,-,N/A,,Overcast,70,2014-02-04 09:15:00
4:35 AM,32.0,30.2,93,30.26,7.0,NE,5.8,-,N/A,,Overcast,50,2014-02-04 09:35:00
4:55 AM,32.0,30.2,93,30.25,7.0,ENE,5.8,-,N/A,,Overcast,60,2014-02-04 09:55:00
5:15 AM,32.0,30.2,93,30.26,7.0,ENE,4.6,-,N/A,,Overcast,60,2014-02-04 10:15:00
5:35 AM,32.0,30.2,93,30.25,7.0,ENE,5.8,-,N/A,,Overcast,70,2014-02-04 10:35:00
5:55 AM,32.0,30.2,93,30.26,7.0,ENE,5.8,-,N/A,,Overcast,60,2014-02-04 10:55:00
6:15 AM,32.0,30.2,93,30.25,5.0,ENE,4.6,-,N/A,,Overcast,70,2014-02-04 11:15:00
6:35 AM,32.0,30.2,93,30.26,5.0,ENE,4.6,-,N/A,,Overcast,70,2014-02-04 11:35:00
6:55 AM,32.0,30.2,93,30.26,7.0,East,5.8,-,N/A,,Overcast,100,2014-02-04 11:55:00
7:15 AM,32.0,30.2,93,30.28,5.0,Calm,Calm,-,N/A,,Overcast,0,2014-02-04 12:15:00
7:35 AM,32.0,30.2,93,30.27,5.0,ENE,4.6,-,N/A,,Overcast,70,2014-02-04 12:35:00
7:55 AM,32.0,30.2,93,30.28,4.0,NE,5.8,-,N/A,,Overcast,50,2014-02-04 12:55:00
8:15 AM,32.0,30.2,93,30.28,3.0,ENE,4.6,-,N/A,,Overcast,60,2014-02-04 13:15:00
8:35 AM,32.0,30.2,93,30.28,3.0,NE,6.9,-,N/A,,Overcast,50,2014-02-04 13:35:00
8:55 AM,32.0,32.0,100,30.28,3.0,ENE,5.8,-,N/A,,Overcast,70,2014-02-04 13:55:00
9:15 AM,32.0,32.0,100,30.27,3.0,East,6.9,-,N/A,,Overcast,80,2014-02-04 14:15:00
9:35 AM,32.0,32.0,100,30.27,3.0,East,5.8,-,N/A,,Overcast,100,2014-02-04 14:35:00
9:55 AM,32.0,32.0,100,30.24,3.0,East,9.2,-,N/A,,Overcast,80,2014-02-04 14:55:00
10:15 AM,32.0,32.0,100,30.23,3.0,East,9.2,-,N/A,,Overcast,90,2014-02-04 15:15:00
10:35 AM,32.0,32.0,100,30.22,3.0,East,8.1,-,N/A,,Overcast,90,2014-02-04 15:35:00
11:15 AM,33.8,32.0,93,30.21,4.0,East,9.2,-,N/A,,Overcast,100,2014-02-04 16:15:00
11:35 AM,33.8,32.0,93,30.21,5.0,East,8.1,-,N/A,,Overcast,90,2014-02-04 16:35:00
11:55 AM,33.8,32.0,93,30.18,5.0,East,5.8,-,N/A,,Overcast,100,2014-02-04 16:55:00
12:15 PM,33.8,32.0,93,30.16,5.0,East,5.8,-,N/A,,Overcast,90,2014-02-04 17:15:00
12:35 PM,33.8,32.0,93,30.15,5.0,East,6.9,-,N/A,,Overcast,80,2014-02-04 17:35:00
12:55 PM,33.8,32.0,93,30.15,5.0,ENE,4.6,-,N/A,,Overcast,60,2014-02-04 17:55:00
1:15 PM,33.8,32.0,93,30.13,5.0,NE,3.5,-,N/A,,Overcast,50,2014-02-04 18:15:00
1:35 PM,33.8,33.8,100,30.12,5.0,NE,5.8,-,N/A,,Overcast,50,2014-02-04 18:35:00
1:55 PM,35.6,33.8,93,30.10,5.0,ENE,6.9,-,N/A,,Overcast,70,2014-02-04 18:55:00
2:15 PM,35.6,33.8,93,30.09,5.0,ENE,5.8,-,N/A,,Overcast,60,2014-02-04 19:15:00
2:35 PM,35.6,33.8,93,30.06,7.0,ENE,5.8,-,N/A,,Overcast,70,2014-02-04 19:35:00
2:55 PM,35.6,33.8,93,30.07,7.0,NE,5.8,-,N/A,,Overcast,40,2014-02-04 19:55:00
3:15 PM,35.6,33.8,93,30.05,5.0,NE,8.1,-,N/A,,Overcast,50,2014-02-04 20:15:00
3:35 PM,35.6,33.8,93,30.04,5.0,NE,9.2,-,N/A,,Overcast,50,2014-02-04 20:35:00
3:55 PM,35.6,33.8,93,30.03,5.0,NE,8.1,-,N/A,,Overcast,40,2014-02-04 20:55:00
4:15 PM,35.6,33.8,93,30.08,5.0,North,3.5,-,N/A,,Overcast,10,2014-02-04 21:15:00
4:35 PM,33.8,33.8,100,30.05,2.0,NE,6.9,-,0.01,Rain,Rain,50,2014-02-04 21:35:00
4:55 PM,33.8,33.8,100,30.05,1.8,NE,5.8,-,0.04,Rain,Light Rain,50,2014-02-04 21:55:00
5:15 PM,33.8,33.8,100,30.01,2.5,ENE,9.2,-,0.02,Rain,Rain,60,2014-02-04 22:15:00
5:35 PM,33.8,33.8,100,29.95,4.0,ENE,6.9,-,0.02,Rain,Light Rain,60,2014-02-04 22:35:00
5:55 PM,33.8,33.8,100,29.96,7.0,NE,9.2,-,0.02,Rain,Light Rain,40,2014-02-04 22:55:00
6:15 PM,33.8,33.8,100,29.96,2.5,East,8.1,-,0.06,Rain,Light Rain,90,2014-02-04 23:15:00
6:35 PM,33.8,33.8,100,29.92,5.0,East,10.4,16.1,0.09,Rain,Light Rain,100,2014-02-04 23:35:00
7:15 PM,33.8,33.8,100,29.92,7.0,East,8.1,-,N/A,Rain,Light Rain,90,2014-02-05 00:15:00
7:35 PM,33.8,33.8,100,29.91,10.0,East,5.8,-,N/A,,Overcast,80,2014-02-05 00:35:00
7:55 PM,33.8,33.8,100,29.90,10.0,East,5.8,-,N/A,,Overcast,80,2014-02-05 00:55:00
8:15 PM,33.8,33.8,100,29.90,10.0,East,4.6,-,N/A,,Overcast,100,2014-02-05 01:15:00
8:35 PM,33.8,33.8,100,29.90,10.0,East,4.6,-,N/A,,Overcast,100,2014-02-05 01:35:00
8:55 PM,33.8,33.8,100,29.92,10.0,North,6.9,-,N/A,,Overcast,360,2014-02-05 01:55:00
9:15 PM,33.8,33.8,100,29.91,10.0,North,11.5,-,0.01,Rain,Light Rain,10,2014-02-05 02:15:00
9:35 PM,33.8,33.8,100,29.91,4.0,NE,5.8,10.4,0.05,Rain,Rain,40,2014-02-05 02:35:00
9:55 PM,33.8,33.8,100,29.91,5.0,NE,8.1,-,0.06,Rain,Rain,50,2014-02-05 02:55:00
10:15 PM,33.8,33.8,100,29.88,7.0,ENE,5.8,-,N/A,Rain,Rain,70,2014-02-05 03:15:00
10:35 PM,33.8,33.8,100,29.88,5.0,ENE,4.6,-,N/A,Rain,Rain,70,2014-02-05 03:35:00
10:55 PM,33.8,33.8,100,29.88,4.0,ENE,3.5,-,0.02,Rain,Rain,60,2014-02-05 03:55:00
11:15 PM,33.8,33.8,100,29.87,4.0,NE,3.5,-,0.02,Rain,Rain,40,2014-02-05 04:15:00
11:35 PM,33.8,33.8,100,29.86,2.5,NNE,4.6,-,0.08,,Overcast,30,2014-02-05 04:35:00
11:55 PM,33.8,33.8,100,29.86,3.0,NNE,5.8,-,0.14,Rain,Rain,20,2014-02-05 04:55:00